Location: Briis
(48.6240°N, 2.1211°E)
Time: 11:30:19
(UTC+00:00)

ALOS - Pass Details

Date: 25 September 2020
Orbit: 683 x 685 km, 97.9° (Epoch: 30 October)

Event Time Altitude Azimuth Distance (km) Brightness Sun altitude
Rises 04:08:34 0° 19° (NNE) 3,061 6.2 -16.2°
Reaches altitude 10° 04:10:55 10° 26° (NNE) 2,140 5.4 -15.8°
Maximum altitude 04:15:23 43° 98° (E) 956 3.5 -15.1°
Drops below altitude 10° 04:19:49 10° 170° (S) 2,123 4.7 -14.4°
Sets 04:22:08 0° 177° (S) 3,033 5.5 -14.0°
